User: anonymous   Login
Location: Caltech
(34.1382°N, 118.1253°W)
Time: 11:16:43
(UTC-08:00)
Language:

COSMOS 2428 - Orbit

View from above orbital plane
View from above orbital plane
View from above satellite
View from above satellite

Ground track
Ground track

The orbit data is extracted from the following two-line orbital elements,

1 31792U 07029A   17017.47851778 -.00000193  00000-0 -78947-4 0  9997
2 31792  70.9162   8.5429 0007370 168.2977 191.8316 14.12262916492798
Epoch (UTC): 17 January 2017 11:29:03
Eccentricity: 0.0007370
inclination: 70.9162°
perigee height: 846 km
apogee height: 857 km
right ascension of ascending node: 8.5429°
argument of perigee: 168.2977°
revolutions per day: 14.12262916
mean anomaly at epoch: 191.8316°
orbit number at epoch: 49279

The dashed part of the orbit path shows where the satellite is in the earth's shadow,  

DLR